Weather observations for the past three days for
Sacramento Executive Airport
Imperial (Metric)
Date Time (pdt) Wind (mph) Vis. (mi.) Weather Sky Cond. Temperature (ºF) Relative Humidity Wind Chill (°F) Heat Index (°F) Pressure Precipitation (in)
Air Dwpt 6 hour altimeter (in) sea level (mb) 1 hr 3 hr 6 hr
Max. Min.
07 22:53 S 7 10.00 Fair CLR 59 54 82.9 59 83% 29.98 1015.2
07 21:53 SW 7 10.00 Fair CLR 61 55 81% 29.98 1015.3
07 20:53 S 5 10.00 Fair CLR 63 55.9 78% 29.97 1014.8
07 19:53 S 8 G 18 10.00 Fair CLR 68 57 68% 29.95 1014.2
07 18:53 SW 10 10.00 Fair CLR 75.9 60.1 58% 78 29.94 1013.9
07 17:53 SW 9 10.00 Fair CLR 81 61 51% 82 29.95 1014.0
07 16:53 Vrbl 5 10.00 Fair CLR 82.9 60.1 82.9 68 46% 83 29.95 1014.2
07 15:53 Vrbl 7 10.00 Fair CLR 82 60.1 47% 82 29.97 1014.9
07 14:53 Vrbl 6 10.00 Fair CLR 81 59 47% 81 30 1015.9
07 13:53 W 6 10.00 Fair CLR 80.1 60.1 51% 81 30.02 1016.7
07 12:53 W 8 10.00 Fair CLR 77 59 54% 79 30.04 1017.3
07 11:53 W 6 10.00 Fair CLR 73 59 62% 30.07 1018.0
07 10:53 SW 3 10.00 Fair CLR 68 57 69.1 54 68% 30.08 1018.4
07 09:53 SW 6 10.00 Fair CLR 63 55 76% 30.09 1018.7
07 08:53 SW 5 10.00 Overcast OVC006 57 54 90% 30.09 1018.8
07 07:53 Vrbl 3 10.00 Overcast OVC005 55 53.1 93% 30.09 1018.8
07 06:53 S 5 10.00 Overcast OVC005 54 52 93% 30.07 1018.4
07 05:53 S 6 10.00 Overcast OVC006 55 53.1 93% 30.06 1017.9
07 04:53 Vrbl 7 10.00 Overcast OVC007 55 53.1 60.1 55 93% 30.06 1017.8
07 03:53 SE 3 10.00 Partly Cloudy SCT008 55 53.1 93% 30.05 1017.6
07 02:53 S 6 10.00 Fair CLR 55.9 53.1 90% 30.05 1017.6
07 01:53 S 5 10.00 Fair CLR 57 53.1 87% 30.06 1017.8
07 00:53 S 5 10.00 Fair CLR 57 53.1 87% 30.06 1017.7
06 23:53 S 6 10.00 Fair CLR 57.9 53.1 84% 30.06 1017.7
06 22:53 SW 6 10.00 Fair CLR 60.1 53.1 75.9 60.1 78% 30.05 1017.5
06 21:53 SW 10 G 18 10.00 Fair CLR 62.1 54 75% 30.04 1017.3
06 20:53 SW 9 10.00 Fair CLR 64.9 55 70% 30.03 1016.9
06 19:53 SW 8 10.00 Fair CLR 70 57.9 66% 30.02 1016.6
06 18:53 Calm 10.00 Fair CLR 75 55.9 52% 78 30.02 1016.3
06 17:53 Vrbl 3 10.00 Fair CLR 75 55 50% 78 30.02 1016.4
06 16:53 Vrbl 5 10.00 Fair CLR 75 55 75.9 66 50% 78 30.03 1016.7
06 15:53 W 8 10.00 Fair CLR 75 54 48% 78 30.04 1017.3
06 14:53 Vrbl 3 10.00 Fair CLR 73 53.1 50% 30.07 1018.2
06 13:53 Calm 10.00 Partly Cloudy SCT042 71.1 52 51% 30.09 1018.9
06 12:53 Vrbl 3 10.00 Overcast OVC041 70 51.1 51% 30.11 1019.5
06 11:53 Vrbl 3 10.00 Overcast OVC045 70 53.1 55% 30.13 1020.2
06 10:53 SW 5 10.00 Overcast OVC046 66.9 53.1 66.9 57 61% 30.14 1020.5
06 09:53 SW 3 10.00 Overcast OVC046 62.1 53.1 73% 30.13 1020.4
06 08:53 Vrbl 3 10.00 Overcast OVC047 60.1 53.1 78% 30.14 1020.4
06 07:53 S 3 10.00 Overcast OVC048 59 51.1 75% 30.13 1020.2
06 06:53 Calm 10.00 Overcast OVC049 57 51.1 81% 30.12 1019.7
06 05:53 Calm 10.00 Overcast OVC050 57 51.1 81% 30.11 1019.5
06 04:53 Calm 10.00 Overcast OVC050 57 52 59 57 83% 30.1 1019.1
06 03:53 S 5 10.00 Overcast OVC050 57 52 83% 30.08 1018.6
06 02:53 S 5 10.00 Overcast OVC050 57 51.1 81% 30.07 1018.3
06 01:53 S 5 10.00 Overcast OVC048 57.9 51.1 78% 30.07 1018.3
06 00:53 S 6 10.00 Overcast OVC055 57.9 51.1 78% 30.07 1018.2
05 23:53 SW 7 10.00 Overcast OVC050 57.9 51.1 78% 30.05 1017.6
05 22:53 SW 8 G 17 10.00 Overcast OVC048 59 51.1 66 59 75% 30.04 1017.2
05 21:53 SW 8 10.00 Overcast OVC049 60.1 52 75% 30.03 1016.7
05 20:53 SW 8 10.00 Mostly Cloudy BKN050 60.1 52 75% 30.01 1016.1
05 19:53 SW 9 10.00 Overcast OVC050 63 53.1 70% 29.99 1015.4
05 18:53 S 6 10.00 Overcast OVC045 64 53.1 68% 29.97 1014.9
05 17:53 S 7 10.00 Overcast BKN036 OVC048 66 53.1 63% 29.96 1014.5
05 16:53 SE 7 10.00 Overcast OVC031 64.9 53.1 68 62.1 66% 29.96 1014.4
05 15:53 Calm 10.00 Overcast OVC041 66 51.1 59% 29.96 1014.5
05 14:53 Calm 10.00 Overcast OVC040 68 53.1 59% 29.97 1014.9
05 13:53 SE 5 10.00 Overcast OVC036 64 52 65% 29.98 1015.1
05 12:53 S 5 10.00 Overcast FEW030 OVC036 64 51.1 63% 29.99 1015.4
05 11:53 Calm 10.00 Overcast BKN023 OVC029 61 51.1 70% 29.99 1015.4
05 10:53 Calm 10.00 Overcast OVC019 61 53.1 61 53.1 75% 29.98 1015.2
05 09:53 SE 5 10.00 Overcast OVC012 57.9 53.1 84% 29.98 1015.1
05 08:53 SE 6 10.00 Overcast OVC010 55.9 53.1 90% 29.97 1014.9
05 07:53 SE 6 10.00 Overcast OVC010 54 52 93% 29.96 1014.5
05 06:53 SE 5 10.00 Overcast OVC009 53.1 52 96% 29.95 1014.1
05 05:53 S 3 10.00 Overcast OVC010 53.1 52 96% 29.94 1013.7
05 04:53 SE 5 10.00 Overcast OVC009 53.1 52 54 53.1 96% 29.94 1013.8 0.13
05 03:53 SE 6 10.00 Overcast OVC007 53.1 52 96% 29.95 1014.0
05 02:53 S 6 10.00 Overcast OVC006 53.1 52 96% 29.95 1014.3
05 01:53 SE 5 10.00 Overcast BKN008 OVC055 53.1 52 96% 29.97 1014.6 0.01 0.13
05 00:53 S 3 10.00 Light Rain FEW006 OVC060 53.1 52 96% 29.97 1014.9 0.03
04 23:53 Calm 10.00 Light Rain FEW060 BKN080 OVC095 53.1 52 96% 29.97 1015.0 0.09
Date Time (pdt) Wind (mph) Vis. (mi.) Weather Sky Cond. Air Dwpt Max. Min. Relative Humidity Wind Chill (°F) Heat Index (°F) altimeter (in) sea level (mb) 1 hr 3 hr 6 hr
6 hour
Temperature (ºF) Pressure Precipitation (in)